Zurück zum Katalog

STARLINK-30248

AktivKommunikationVLEO
NORAD 57610·PAYLOAD·🇺🇸 United States

Gestartet Aug 11, 2023 von Cape Canaveral Space Force Station

Loading…

Nächste Überflüge (nächste 24 Stunden)

TLE

AktuellSource: CelesTrak SupGP

Epoche: Sep 15, 2026, 01:42 UTC

1 57610C 23119J   26258.07131944  .00038721  00000+0  14022-2 0  2586
2 57610  43.0032  91.6768 0001590 273.2715 108.0662 15.27565581    11

Verfolge STARLINK-30248 in Echtzeit mit AllMySat

Download on the App Store